Skip Page Navigation
NASA JPL Caltech
NASA Logo - Jet Propulsion Laboratory + View the NASA Portal
+ Center for Near-Earth Object Studies
JPL Home Earth Solar System Stars & Galaxies Technology
JPL Solar System Dynamics
BODIES ORBITS EPHEMERIDES TOOLS PHYSICAL DATA DISCOVERY FAQ SITE MAP
JPL Small-Body Database Browser
Search: [ help ]  
26638 (2000 HO88)
Classification: Main-belt Asteroid          SPK-ID: 2026638
Ephemeris | Orbit Diagram | Orbital Elements | Mission Design | Physical Parameters | Discovery Circumstances | Close-Approach Data ]

[ show orbit diagram ]
Orbital Elements at Epoch 2459000.5 (2020-May-31.0) TDB
Reference: JPL 30 (heliocentric ecliptic J2000)
 Element Value Uncertainty (1-sigma)   Units 
e .1091123179619397 5.3066e-08  
a 2.657808824575348 1.3765e-08 au
q 2.367809143026233 1.413e-07 au
i 21.26842051662986 5.7893e-06 deg
node 238.1464432738195 1.1436e-05 deg
peri 148.9390599704679 2.5561e-05 deg
M 64.47778958315371 2.1022e-05 deg
tp 2458717.040070141531
(2019-Aug-21.54007014)
9.2791e-05 TDB
period 1582.646914678208
4.33
1.2295e-05
3.366e-08
d
yr
n .2274670342836369 1.7672e-09 deg/d
Q 2.947808506124463 1.5267e-08 au
  Orbit Determination Parameters
   # obs. used (total)      1170  
   data-arc span      24386 days (66.77 yr)  
   first obs. used      1953-07-12  
   last obs. used      2020-04-17  
   planetary ephem.      DE431  
   SB-pert. ephem.      SB431-N16  
   condition code      0  
   norm. resid. RMS      .47092  
   source      ORB  
   producer      Otto Matic  
   solution date      2020-May-20 06:04:35  

Additional Information
 Earth MOID = 1.3932 au 
 Jupiter MOID = 2.4809 au 
 T_jup = 3.282 
[ show covariance matrix ]

Ephemeris | Orbit Diagram | Orbital Elements | Mission Design | Physical Parameters | Discovery Circumstances | Close-Approach Data ]

Physical Parameter Table
Parameter Symbol Value Units Sigma Reference Notes
absolute magnitude H 14.0   n/a MPO459043  
diameter diameter 4.016 km 0.097 urn:nasa:pds:neowise_diameters_albedos::2.0[mainbelt] (http://adsabs.harvard.edu/abs/2011ApJ...741...68M)  
geometric albedo albedo 0.478   0.075 urn:nasa:pds:neowise_diameters_albedos::2.0[mainbelt] (http://adsabs.harvard.edu/abs/2011ApJ...741...68M)  

26638 (2000 HO88)          Discovered 2000-Apr-28 by LINEAR at Socorro
Reference: 20010705/Numbers.arcLast Updated: 2004-04-19

[ show close-approach data ]
Ephemeris | Orbit Diagram | Orbital Elements | Mission Design | Physical Parameters | Discovery Circumstances | Close-Approach Data ]
ABOUT SSD CREDITS/AWARDS PRIVACY/COPYRIGHT GLOSSARY LINKS
FirstGov 2020-Jul-04 23:11 UT
(server date/time)  
NASA Home Page
Site Manager:   Ryan S. Park
Webmaster  Alan B. Chamberlin